TimeEDT,TemperatureF,Dew PointF,Humidity,Sea Level PressureIn,VisibilityMPH,Wind Direction,Wind SpeedMPH,Gust SpeedMPH,PrecipitationIn,Events,Conditions,WindDirDegrees,DateUTC
12:54 AM,72.0,66.9,84,30.04,10.0,WSW,4.6,-,N/A,,Clear,240,2013-07-08 04:54:00
1:54 AM,72.0,66.9,84,30.04,10.0,West,5.8,-,N/A,,Clear,260,2013-07-08 05:54:00
2:54 AM,71.1,66.9,87,30.04,10.0,WSW,5.8,-,N/A,,Clear,250,2013-07-08 06:54:00
3:54 AM,71.1,66.9,87,30.05,10.0,WSW,4.6,-,N/A,,Clear,240,2013-07-08 07:54:00
4:54 AM,71.1,66.9,87,30.05,10.0,West,4.6,-,N/A,,Clear,260,2013-07-08 08:54:00
5:54 AM,71.1,66.9,87,30.06,10.0,WSW,8.1,-,N/A,,Clear,240,2013-07-08 09:54:00
6:54 AM,73.0,68.0,84,30.06,10.0,West,6.9,-,N/A,,Partly Cloudy,270,2013-07-08 10:54:00
7:54 AM,75.0,68.0,79,30.07,10.0,WNW,6.9,-,N/A,,Clear,300,2013-07-08 11:54:00
8:54 AM,75.9,69.1,79,30.08,10.0,West,5.8,-,N/A,,Clear,260,2013-07-08 12:54:00
9:54 AM,79.0,70.0,74,30.07,10.0,WSW,3.5,-,N/A,,Clear,250,2013-07-08 13:54:00
10:54 AM,81.0,70.0,69,30.08,10.0,Variable,5.8,-,N/A,,Partly Cloudy,0,2013-07-08 14:54:00
11:54 AM,84.0,70.0,63,30.08,10.0,WNW,10.4,-,N/A,,Scattered Clouds,300,2013-07-08 15:54:00
12:54 PM,84.9,69.1,59,30.07,10.0,WSW,9.2,-,N/A,,Partly Cloudy,250,2013-07-08 16:54:00
1:54 PM,86.0,69.1,57,30.05,10.0,West,4.6,-,N/A,,Scattered Clouds,260,2013-07-08 17:54:00
2:54 PM,84.0,69.1,61,30.04,10.0,WSW,4.6,-,N/A,Thunderstorm,Mostly Cloudy,250,2013-07-08 18:54:00
3:26 PM,84.2,68.0,58,30.04,10.0,NW,10.4,16.1,N/A,,Mostly Cloudy,310,2013-07-08 19:26:00
3:54 PM,86.0,69.1,57,30.03,10.0,West,8.1,-,N/A,,Partly Cloudy,280,2013-07-08 19:54:00
4:54 PM,84.9,66.9,55,30.03,10.0,West,11.5,-,N/A,,Partly Cloudy,270,2013-07-08 20:54:00
5:24 PM,80.6,66.2,61,30.01,10.0,West,6.9,18.4,0.00,Rain-Thunderstorm,Light Rain,280,2013-07-08 21:24:00
5:52 PM,78.8,68.0,69,30.03,9.0,WNW,16.1,19.6,0.00,,Clear,290,2013-07-08 21:52:00
5:54 PM,78.1,68.0,71,30.02,9.0,WNW,13.8,-,0.00,,Clear,290,2013-07-08 21:54:00
6:54 PM,81.0,62.1,52,30.04,10.0,WSW,9.2,-,N/A,,Clear,250,2013-07-08 22:54:00
7:54 PM,78.1,61.0,56,30.04,10.0,West,8.1,-,N/A,,Clear,270,2013-07-08 23:54:00
8:54 PM,78.1,62.1,58,30.06,10.0,WSW,9.2,-,N/A,,Clear,250,2013-07-09 00:54:00
9:54 PM,75.9,64.0,67,30.08,10.0,WSW,9.2,-,N/A,,Clear,250,2013-07-09 01:54:00
10:54 PM,75.9,66.0,71,30.09,10.0,Calm,Calm,-,N/A,,Clear,0,2013-07-09 02:54:00
11:54 PM,73.9,66.0,76,30.08,10.0,WSW,4.6,-,N/A,,Clear,250,2013-07-09 03:54:00